Weather in Piura

Peru     5°11′32″S   80°37′40″W
temp.,
°C
wind,
m/s
gust,
m/s
humid.,
%
clouds,
%
prec.,
mm/h
press.,
hPa
HPBL,
m
28 may, sat
sat2801:00+19sse55736 0.0 1013434
04:00+18sse46766 0.0 1012390
07:00+18sse46785 0.0 1013392
10:00+22sse555950 0.0 1014684
13:00+28s55445 0.0 1010997
16:00+27sw87465 0.0 1008780
19:00+22ssw885814 0.0 1010469
22:00+19sse56715 0.0 1013424
29 may, sun
sun2901:00+19sse557568 0.0 1013413
04:00+18s45795 0.0 1012338
07:00+18sse45805 0.0 1012353
10:00+22sse33605 0.0 1013726
13:00+27ssw44440 0.0 10101062
16:00+25sw76515 0.0 1008723
19:00+22ssw88585 0.0 1010565
22:00+19s677053 0.0 1013438
30 may, mon
mon3001:00+19sse55745 0.0 1012444
04:00+18sse45765 0.0 1012328
07:00+18sse45781 0.0 1012302
10:00+22s43595 0.0 1013655
13:00+27ssw54445 0.0 10101048
16:00+24wsw75545 0.0 1009576
19:00+22ssw68645 0.0 1011438
22:00+20s67716 0.0 1013422
31 may, tue
tue3101:00+19sse457449 0.0 1013391
04:00+18s45787 0.0 1013380
07:00+18sse457927 0.0 1014334
10:00+22sse4459100 0.0 1014738
13:00+27ssw5545100 0.0 10121121
16:00+23sw775747 0.0 1011581
19:00+22s785976 0.0 1013552
22:00+20sse6767100 0.0 1015473
1 june, wed
wed101:00+19sse5671100 0.0 1014497
04:00+19sse5673100 0.0 1013474
07:00+18sse567796 0.0 1014415
10:00+23sse555819 0.0 1014694
13:00+28s554299 0.0 10111098
16:00+27ssw7745100 0.0 10091078
19:00+21s896571 0.0 1012602
22:00+19sse787361 0.0 1015524